Flag for U.S.A. Weather past 2 weeks in New Haven, Connecticut, U.S.A.

Now
66 °F

Passing clouds.


Feels Like: 66 °F
Forecast: 66 / 85 °F
Wind: No wind

Location: Tweed-New Haven Airport

Current Time: Aug 1, 2015 at 6:33:21 AM

Latest Report: Aug 1, 2015 at 5:53 AM


Visibility: 10 mi

Pressure: 29.77 "Hg

Humidity: 93%

Dew point: 64 °F

Location of New HavenLocation

Historic Weather in New Haven — Graph

°F

New Haven temperature yesterday

Maximum temperature yesterday: 87 °F (at 5:53 PM)
Minimum temperature yesterday: 67 °F (at 11:53 PM)
Average temperature yesterday: 77 °F

Past Weeks' High & Low Weather Summary

 TemperatureHumidityPressure
High91 °F (Jul 20, 5:53 PM)97% (Jul 19, 4:53 AM)30.12 "Hg (Jul 19, 4:53 AM)
Low57 °F (Jul 17, 5:53 AM)32% (Jul 31, 5:53 PM)29.56 "Hg (Jul 21, 6:53 PM)
Average76 °F71%29.88 "Hg
* Reported Jul 17 4:53 AM — Aug 1 4:53 AM, New Haven, Weather by CustomWeather, © 2015

Note: Actual official high and low records may vary slightly from our data, if they occured in-between our weather recording intervals... More about our weather records

Advertising

New Haven weather history for previous 24 hours

 ConditionsComfort  
Time TempWeatherWind HumidityBarometerVisibility
4:53 AM
Sat, Aug 1
66 °FClear.No wind93%29.78 "Hg10 mi
3:53 AM67 °FClear.No wind90%29.78 "Hg10 mi
2:53 AM67 °FClear.No wind87%29.79 "Hg10 mi
1:53 AM67 °FClear.No wind87%29.80 "Hg10 mi
12:53 AM68 °FClear.No wind84%29.82 "Hg10 mi
11:53 PM
Fri, Jul 31
67 °FClear.No wind85%29.83 "Hg10 mi
10:53 PM70 °FClear.No wind76%29.82 "Hg10 mi
9:53 PM71 °FClear.No wind76%29.82 "Hg10 mi
8:53 PM75 °FSunny.No wind64%29.80 "Hg10 mi
7:53 PM82 °FSunny.No wind44%29.79 "Hg10 mi
6:53 PM85 °FPassing clouds.5 mph40%29.78 "Hg10 mi
5:53 PM87 °FPassing clouds.8 mph32%29.78 "Hg10 mi
4:53 PM85 °FScattered clouds.6 mph43%29.79 "Hg10 mi
3:53 PM84 °FScattered clouds.10 mph51%29.80 "Hg10 mi
2:53 PM83 °FScattered clouds.8 mph51%29.81 "Hg10 mi
1:53 PM82 °FPassing clouds.10 mph55%29.82 "Hg10 mi
12:53 PM81 °FPassing clouds.9 mph62%29.83 "Hg10 mi
11:53 AM79 °FSunny.10 mph69%29.85 "Hg10 mi
10:53 AM76 °FSunny.9 mph72%29.85 "Hg10 mi
9:53 AM77 °FSunny.5 mph69%29.85 "Hg10 mi
8:53 AM75 °FSunny.3 mph74%29.85 "Hg10 mi
7:53 AM74 °FSunny.No wind76%29.85 "Hg10 mi
6:53 AM72 °FSunny.No wind87%29.84 "Hg10 mi
Weather by CustomWeather, © 2015

See weather overviewHow to use our weather pages